Погода Красный Чикой

Хотите узнать прогноз погоды Красный Чикой? Тогда Вам сюда: Погода Красный Чикой

Поиск расширенной информации на нашем сайте:

Полезная информация:

Новости сайта



02.01.2020
Опубликован Долгосрочный прогноз погоды по городам России и ближнего зарубежья на январь 2020 года.
Карты: Прогноз на январь и февраль 2020 года, Сравнение прогнозируемой аномалии приземной температуры воздуха на январь 2020 года по разным моделям.




Погода Красный Чикой - сегодня

Время (UTC), дата Ветер
(°,м/с) 
Видим.   Явления Облачность Т
(°С)
Тd
(°С)
f(%) Тe
(°С)
Pmin
(гПа)
dP
(гПа)
Po
(мм)
O2
(г/м3)
Тmin Tmax R s Состояние
почвы
00 30.11.20 260 (З) 10 км  осадки на расстоянии  10/3 1000 м средняя 
[Sc|As op]
-11.8 -14.7 79 -14  1041.7  0.4  707  299  -13.3      равномерный
сухой снег
100% 
03 30.11.20 240 (ЮЗ) 20000 м    10/0 верхняя 
[Cs]
-10.7 -13.6 79 -13  1041.6  0.2  707  298           
06 30.11.20 240 (ЮЗ) 10 км  осадки на расстоянии  10/4 1000 м кучево-дожд., средняя, верхняя 
[Cb cap|Ac lent|Ci sp]
-8.7 -12.3 75 -12  1040.2  -0.5  707  295           
09 30.11.20 220 (ЮЗ) 10 км  в посл. час ливневой снег  10/6 1000 м кучево-дожд., средняя, верхняя 
[Cb cap|Ac lent|Ci sp]
-9.7 -12 83 -11  1041.1  0.5  707  297           
12 30.11.20 260 (З) 10 км  осадки на расстоянии{ливн. осадки}  10/0 средняя 
[Ac As]
-11.3 -14.4 78 -13  1042.3  0.5  708  299    -8.3  0.2     
15 30.11.20 240 (ЮЗ) 10 км  слаб. снег  10/0 средняя 
[Ac As]
-11.8 -13.2 89 -14  1042.3  -0.2  708  299           
18 30.11.20 270 (З) 10 км  слаб. снег  10/0 средняя 
[Ac As]
-12.1 -13.5 89 -14  1041.8  -0.6  707  299           
21 30.11.20 260 (З) 10 км  слаб. снег  10/0 средняя 
[As op]
-12.3 -14.4 84 -14  1041.3  -0.5  707  299           
00 01.12.20 270 (З) 10 км  слаб. снег  10/0 средняя 
[As op]
-12.3 -14.4 84 -14  1041.3  0.2  707  299  -12.5    равномерный
сухой снег
100% 
03 01.12.20 250 (З) 4000 м  снег  10/0 средняя 
[As op]
-11.1 -12.9 87 -14  1041  707  298  -12.6         
06 01.12.20 210 (ЮЗ) 10 км  осадки на расстоянии{снег}  10/0 средняя 
[Ac As]
-9.1 -13 73 -12  1039.3  -0.8  706  295           
09 01.12.20 250 (З) 20000 м    10/4 1000 м кучево-дожд., средняя 
[Cb cap|Ac lent]
-9.5 -12.9 76 -11  1039.4  -0.1  706  296           
12 01.12.20 240 (ЮЗ) 10 км  осадки на расстоянии  10/3 1000 м кучево-дожд., средняя, верхняя 
[Cb cap|Ac lent|Ci sp]
-10.6 -13.6 79 -10  1040.3  0.4  707  297    -8.9  0.5     
15 01.12.20 250 (З) 10 км  слаб. ливневой снег  10/6 1000 м кучево-дожд., средняя 
[Cb cap|Ac As]
-11.2 -13.7 82 -11  1040.7  0.2  707  298           
18 01.12.20 240 (ЮЗ) 20000 м  {ливн. осадки}  8/3 1000 м средняя, верхняя 
[Cu med, cong|Ac lent|Ci sp]
-12.4 -15.4 78 -16  1041.6  0.3  707  300           
21 01.12.20 240 (ЮЗ) 10 км  осадки на расстоянии  10/4 1000 м кучево-дожд., средняя, верхняя 
[Cb cap|Ac lent|Ci sp]
-12.3 -14.3 85 -12  1041.9  0.3  707  300           
00 02.12.20 240 (ЮЗ) 10 км  осадки на расстоянии  9/3 1000 м кучево-дожд., средняя, верхняя 
[Cb cap|Ac lent|Ci fib]
-13.1 -15 86 -15  1043  0.7  708  301  -13.6    0.4  равномерный
сухой снег
100% 
03 02.12.20 220 (ЮЗ) 20000 м  {снег}  8/4 1000 м кучево-дожд., средняя, верхняя 
[Cb cap|Ac lent|Ci fib]
-12.3 -15.1 80 -16  1043.9  1.2  709  300           
06 02.12.20 210 (ЮЗ) 10 км  слаб. снег  10/0 средняя 
[Ac As]
-10.2 -12.6 83 -13  1042.6  -0.5  708  297           
09 02.12.20 220 (ЮЗ) 10 км  слаб. снег  10/0 средняя 
[Ac As]
-10.6 -12.8 84 -14  1043.5  0.7  709  298           
12 02.12.20 230 (ЮЗ) 10 км  слаб. снег  10/0 средняя 
[Ac As]
-11.2 -13 87 -13  1044.6  0.8  709  299    -9.8  0.4     
15 02.12.20 260 (З) 10 км  слаб. снег  10/0 средняя 
[Ac As]
-11.7 -14.6 79 -14  1045.2  0.4  710  300           
18 02.12.20 260 (З) 10 км  слаб. снег  10/0 средняя 
[Ac As]
-11.9 -15.1 77 -14  1045.2  -0.1  710  300           
21 02.12.20 230 (ЮЗ) 10 км  слаб. снег  10/0 средняя 
[Ac As]
-11.9 -14.5 81 -12  1044.7  -0.5  709  300           
00 03.12.20 270 (З) 10 км  осадки на расстоянии{снег}  10/0 средняя 
[Ac As]
-12.1 -15.2 78 -14  1044.9  0.2  709  300  -12.1    0.0  равномерный
сухой снег
100% 
Время (UTC), дата Ветер
(°,м/с) 
Видим.   Явления Облачность Т
(°С)
Тd
(°С)
f(%) Тe
(°С)
Pmin
(гПа)
dP
(гПа)
Po
(мм)
O2
(г/м3)
Тmin Tmax R s Состояние
почвы

Для получения пояснительной информации подведите курсор к названию столбца.

ПОГОДА Красный Чикой - архив

Всё, что Вы хотите узнать о погоде Красный Чикой - удобно и подробно!

Выберите нужную дату (начиная с 1 января 2019* года) и нажмите кнопку "Найти".
Будут отображены архивные сводки погоды по пункту Красный Чикой, начиная с указанной даты.


Отображать данные в формате CSV (для использования в таблицах Excel)


Внимание! Наш архив погоды предназначен исключительно для личного некоммерческого использования в познавательных целях. Если Вам необходимы официальные справки о состоянии погоды (для производственных, юридических, коммерческих и т.п. целей), обращайтесь в органы Росгидромета.

*Примечание: данная дата относится к архиву по метеостанциям СССР (Россия, СНГ, Балтия).
Архив по метеостанциям Зарубежной Европы и Азии (кроме Китая) хранится 10 дней, по другим регионам земного шара (Китай, Африка, Америка, Австралия, Океания) - 1 день.

Красный Чикой - район местоположения метеостанции


Название, широта, долгота, высота метеостанции:
Красный Чикой 50.4°ш. 108.8°д. 771 м над ур. моря [Российская Федерация]

Дополнительная информация

В oтличие oт бoльшинства пoгoдных сайтoв мы публикуем пoдрoбную метеoинфoрмацию в детальнoм прoфессиoнальнoм фoрмате.

Характеристики температуры и влажнoсти вoздуха измеряются на высoте 2 м в тени вдали oт зданий и деревьев.
Скoрoсть ветра измеряется на высoте 10 м (на урoвне рoста челoвека скoрoсть ветра ниже в 1.5-2 раза). Если метеoстанция нахoдится в гoрoде или в лесу, тo скoрoсть ветра занижена на 2-4 м/с пo сравнению с oткрытым местoм. Скoрoсть ветра над акватoриями крупных рек и oзёр, а также на вершинах хoлмoв на 2-5 м/с выше, чем в oбычных услoвиях.
Атмoсфернoе давление в разных тoчках местнoсти мoжет значительнo oтличаться oт давления на метеoстанции, в зависимoсти oт услoвий рельефа (при пoдъёме на 10 м давление пoнижается примернo на 1 мм рт.ст.).